World > North America > United States > Texas

Hourly Dinsmore, TX Regional Weather

Feedback E-mail the Weather

Quick WX

Dinsmore, TX Weather Maps

°F °C°F °C
Dinsmore Weather Map
UTC Time: 7/4/2022, 14:57
Your Time:

Dinsmore, TX Regional Weather

Expires:202207041500;;669151
ASUS44 KSJT 041415
RWRSJT
WEST CENTRAL TEXAS REGIONAL WEATHER ROUNDUP
NATIONAL WEATHER SERVICE SAN ANGELO TX
900 AM CDT MON JUL 04 2022

NOTE: "FAIR" INDICATES FEW OR NO CLOUDS BELOW 12,000 FEET WITH NO
SIGNIFICANT WEATHER AND/OR OBSTRUCTIONS TO VISIBILITY.


TXZ163-177-195>197-199-213-226-237-041500-
SOUTHEAST TEXAS
  
CITY           SKY/WX    TMP DP  RH WIND       PRES   REMARKS
COLLEGE STN    PTSUNNY   83  76  79 S9        30.07R                  
CALDWELL       MOSUNNY   83  74  74 S14G21    30.08R                  
CROCKETT       CLOUDY    81  77  89 SW6       30.08R                  
BRENHAM        PTSUNNY   84  76  78 SW9       30.08R                  
HUNTSVILLE     MOSUNNY   85  75  72 SW9G22    30.08R                  
CONROE         PTSUNNY   84  76  76 MISG      30.08R                  
HOUSTON BUSH   PTSUNNY   85  75  72 S6        30.06R                  
HOUSTON HOBBY  MOSUNNY   85  77  77 S8        30.06R                  
PERLAND        MOSUNNY   85  77  77 VRB6      30.07R                  
WHARTON        SUNNY     83  75  76 S8        30.07R                  
$$


SKY/WX - Weather  TMP - Temperature  DP - Dew Point  RH - Humidity
WIND - Wind Direction/Speed PRES - Barometric Pressure VSB - Visibility
WCI - Wind Chill Index E13G22 Wind - East Wind 13 mph/Gusts of 22 mph

Trending Headlines

Dinsmore Radar Loop



Dinsmore Quick Facts


National Two Day Weather Forecast


E-mail the Dinsmore Weather Forecast

Voice your opinion or tell us about page issues...